Current weather by "City, St" or "zip code"  
 
Advertise Here

Current Conditions: Vernon, Wilbarger County Airport, TX

Fair


81.0 F

Last Updated on Sep 16 2021, 10:55 pm CDT
Humidity: 55%
Wind Speed: SE 10.4 mph
Barometer 29.93 in
Dewpoint: 63.0 F
Visibility: 10.00 mi
Precip: --
Heat Index: 82 F
Wind Chill: NA
Current conditions at:

Vernon, Wilbarger County Airport, TX (KF05)

Lat: 34.22556 Lon: 99.28361

Local Radar Image active severe weather and emergency alerts image image weather storm and storm spotter reports image weather observation monitoring service image
Local
Radar
Active
Alerts
Storm Reports Obs
Monitoring

Sign-up For Email & Text Message Weather Alert Notification Services



Advertise Here

Observation History for Vernon, Wilbarger County Airport, TX


Time Wind
(mph)
Vis
(mi)
Weather Precip (in) Temperature (F) Relative
Humidity
Wind
Chill
(F)
Heat
Index
(F)
Pressure
Air Dwpt altimeter
(in)
sea level
(mb)
Rmks
10:55 pm CDT SE 10.4 10.00 Fair -- 81.0 63.0 55% NA 82 29.93 M
9:55 pm CDT SE 9.2 10.00 Fair -- 82.0 62.2 51% NA 83 29.92 M
8:55 pm CDT SE 9.2 10.00 Fair -- 84.0 60.8 45% NA 84 29.89 M
7:55 pm CDT SE 11.5 10.00 Fair -- 87.0 60.1 40% NA 87 29.88 M
6:55 pm CDT SE 11.5 10.00 Partly Cloudy -- 91.0 59.0 34% NA 90 29.87 M
5:55 pm CDT SE 15.0 G 18.4 10.00 Mostly Cloudy -- 94.0 58.6 31% NA 93 29.85 M
4:55 pm CDT SE 10.4 10.00 NULL -- 94.0 58.5 31% NA 93 29.86 M
3:15 pm CDT S 12.7 G 18.4 10.00 Mostly Cloudy -- 92.0 59.0 33% NA 91 29.89 M
2:55 pm CDT S 8.1 10.00 Mostly Cloudy -- 93.0 59.9 33% NA 93 29.90 M
1:55 pm CDT S 10.4 G 17.3 10.00 Partly Cloudy -- 91.0 60.6 37% NA 91 29.93 M
12:55 pm CDT S 9.2 G 16.1 10.00 Fair -- 89.0 61.7 40% NA 89 29.95 M
11:55 am CDT S 12.7 G 17.3 10.00 Fair -- 87.0 61.3 42% NA 87 29.98 M
10:55 am CDT S 5.8 10.00 Fair -- 83.0 63.5 51% NA 84 29.99 M
9:55 am CDT SW 5.8 10.00 Fair -- 80.0 63.5 58% NA 82 29.99 M
8:55 am CDT N 0.0 10.00 Fair -- 74.0 63.5 71% NA NA 29.98 M
7:55 am CDT N 3.5 7.00 Fair -- 66.0 61.5 86% NA NA 29.96 M
6:55 am CDT N 0.0 10.00 Fair -- 69.0 63.5 83% NA NA 29.94 M
5:55 am CDT S 3.5 10.00 Fair -- 68.0 62.6 82% NA NA 29.93 M
4:55 am CDT SW 4.6 10.00 Fair -- 69.0 62.4 81% NA NA 29.93 M
3:55 am CDT SW 3.5 10.00 Fair -- 70.0 62.2 77% NA NA 29.94 M
2:55 am CDT W 3.5 10.00 Fair -- 69.0 61.9 78% NA NA 29.94 M
1:55 am CDT S 3.5 10.00 Fair -- 74.0 63.0 70% NA NA 29.95 M
12:55 am CDT N 0.0 10.00 Fair -- 74.0 62.6 67% NA NA 29.95 M
11:55 pm CDT S 5.8 10.00 Fair -- 76.0 63.1 64% NA NA 29.95 M

Regional Weather Observation


Altus Air Force Base, OK (KLTS)

Fair
77.0 F

Altus, Altus/Quartz Mountain Regional Airport, OK (KAXS)

Fair
79.0 F

Hobart, Hobart Municipal Airport, OK (KHBR)

Fair
79.0 F

Frederick, Frederick Municipal Airport, OK (KFDR)

Fair
77.0 F

Childress, Childress Municipal Airport, TX (KCDS)

Fair
79.0 F

Lawton, Lawton Municipal Airport, OK (KLAW)

Fair
78.0 F
Advertise Here


Advertise Here